Mont-De-Marsan, France

1:41 AM CEST on August 31, 2016 (GMT +0200)
Mont-de-Marsan Air Base

Weather History for LFBM - May, 2014

Change the Weather History Date:

Monday, May 5, 2014

  Actual Average Record
Temperature  
Mean Temperature 58 °F -  
Max Temperature 81 °F 69 °F 82 °F (2016)
Min Temperature 36 °F 53 °F 36 °F (2014)
Degree Days  
Heating Degree Days 6    
Growing Degree Days 8 (Base 50)    
Moisture  
Dew Point 45 °F    
Average Humidity 61    
Maximum Humidity 100    
Minimum Humidity 22    
Precipitation  
Precipitation 0.00 in - - ()
Sea Level Pressure  
Sea Level Pressure 29.91 in    
Wind  
Wind Speed 4 mph ()    
Max Wind Speed 10 mph    
Max Gust Speed -    
Visibility 6.8 miles    
Events      
Averages and records for this station are not official NWS values.
T = Trace of Precipitation, MM = Missing Value Source: Averaged Metar Reports

Daily Weather History Graph

Daily Weather History Graph

Search for Another Location

Airport or City:

Trip Planner

Search our weather history database for the weather conditions in past years. The results will help you decide how hot, cold, wet, or windy it might be!

Date:

Astronomy

May. 05, 2014 Rise Set
Actual Time 6:48 AM CEST 9:09 PM CEST
Civil Twilight 6:16 AM CEST 9:41 PM CEST
Nautical Twilight 5:36 AM CEST 10:21 PM CEST
Astronomical Twilight 4:52 AM CEST 11:06 PM CEST
Moon 11:54 AM CEST (5/5) 1:44 AM CEST (5/5)
Length of Visible Light 15h 25m
Length of Day
14h 20m
Waxing Crescent, 34% of the Moon is Illuminated
May 5
Waxing Crescent
May 7
First Quarter
May 14
Full
May 21
Last Quarter
May 28
New

Hourly Weather History & Observations

Time (CEST) Temp. Windchill Dew Point Humidity Pressure Visibility Wind Dir Wind Speed Gust Speed Precip Events Conditions
12:00 AM 50 °F - 42 °F 65% 30.01 in 37 mi East 1.2 mph - -   Clear
12:00 AM 50.0 °F - 41.0 °F 71% 30.01 in 6.2 mi East 1.2 mph - N/A   Unknown
12:30 AM 48.2 °F - 41.0 °F 76% 29.98 in 6.2 mi East 3.5 mph - N/A   Unknown
1:00 AM 46 °F - 41 °F 75% 30.00 in 37 mi East 2.3 mph - -   Clear
1:00 AM 46.4 °F - 41.0 °F 81% 29.98 in 6.2 mi East 2.3 mph - N/A   Unknown
1:30 AM 44.6 °F 43.1 °F 41.0 °F 87% 29.98 in 6.2 mi NE 3.5 mph - N/A   Unknown
2:00 AM 42 °F - 38 °F 83% 29.99 in 37 mi East 3.5 mph - -   Clear
2:00 AM 42.8 °F 41.1 °F 39.2 °F 87% 29.98 in 6.2 mi East 3.5 mph - N/A   Unknown
2:30 AM 41.0 °F - 39.2 °F 93% 29.95 in 6.2 mi ENE 2.3 mph - N/A   Unknown
3:00 AM 40 °F - 38 °F 90% 29.97 in 34 mi ENE 3.5 mph - -   Clear
3:00 AM 41.0 °F 39.0 °F 37.4 °F 87% 29.95 in 6.2 mi ENE 3.5 mph - N/A   Unknown
3:30 AM 39.2 °F 37.0 °F 37.4 °F 93% 29.95 in 6.2 mi East 3.5 mph - N/A   Unknown
4:00 AM 40 °F - 38 °F 90% 29.96 in 31 mi ESE 2.3 mph - -   Clear
4:00 AM 39.2 °F - 37.4 °F 93% 29.95 in 6.2 mi ESE 2.3 mph - N/A   Unknown
4:30 AM 39.2 °F 37.0 °F 37.4 °F 93% 29.92 in 6.2 mi East 3.5 mph - N/A   Unknown
5:00 AM 38 °F - 36 °F 91% 29.94 in 22 mi East 5.8 mph - -   Clear
5:00 AM 37.4 °F 32.8 °F 35.6 °F 93% 29.92 in 6.2 mi East 5.8 mph - N/A   Unknown
5:30 AM 37.4 °F 34.9 °F 35.6 °F 93% 29.92 in 6.2 mi East 3.5 mph - N/A   Unknown
6:00 AM 37 °F - 36 °F 93% 29.94 in 22 mi East 3.5 mph - -   Clear
6:00 AM 37.4 °F 34.9 °F 35.6 °F 93% 29.92 in 6.2 mi East 3.5 mph - N/A   Unknown
6:30 AM 37.4 °F 34.9 °F 35.6 °F 93% 29.92 in 6.2 mi East 3.5 mph - N/A   Unknown
7:00 AM 37 °F - 36 °F 92% 29.95 in 25 mi East 3.5 mph - -   Clear
7:00 AM 37.4 °F 34.9 °F 35.6 °F 93% 29.92 in 6.2 mi East 3.5 mph - N/A   Unknown
7:30 AM 39.2 °F 37.0 °F 39.2 °F 100% 29.92 in 6.2 mi East 3.5 mph - N/A   Unknown
8:00 AM 42 °F - 41 °F 93% 29.95 in 12 mi East 4.6 mph - -   Clear
8:00 AM 42.8 °F 40.1 °F 41.0 °F 93% 29.92 in 6.2 mi East 4.6 mph - N/A   Unknown
8:30 AM 48.2 °F - 44.6 °F 87% 29.92 in 6.2 mi ESE 5.8 mph - N/A   Unknown
9:00 AM 51 °F - 46 °F 77% 29.94 in 22 mi ESE 6.9 mph - -   Clear
9:00 AM 51.8 °F - 46.4 °F 82% 29.92 in 6.2 mi ESE 6.9 mph - N/A   Unknown
9:30 AM - - - N/A% 29.92 in 6.2 mi ESE 5.8 mph - N/A   Unknown
10:00 AM 60 °F - 47 °F 52% 29.93 in 12 mi ESE 9.2 mph - -   Clear
10:00 AM 60.8 °F - 46.4 °F 59% 29.92 in 6.2 mi ESE 9.2 mph - N/A   Unknown
10:30 AM 62.6 °F - 46.4 °F 55% 29.92 in 6.2 mi SE 9.2 mph - N/A   Unknown
11:00 AM 65 °F - 49 °F 45% 29.91 in 28 mi SE 9.2 mph - -   Clear
11:00 AM 64.4 °F - 48.2 °F 56% 29.89 in 6.2 mi SE 9.2 mph - N/A   Unknown
11:30 AM 66.2 °F - 46.4 °F 49% 29.89 in 6.2 mi SE 10.4 mph - N/A   Unknown
12:00 PM 68 °F - 48 °F 37% 29.92 in 28 mi SE 8.1 mph - -   Clear
12:00 PM 68.0 °F - 48.2 °F 49% 29.92 in 6.2 mi SE 8.1 mph - N/A   Unknown
12:30 PM 69.8 °F - 50.0 °F 49% 29.89 in 6.2 mi Variable 5.8 mph - N/A   Unknown
1:00 PM 72 °F - 51 °F 36% 29.90 in 22 mi SE 6.9 mph - -   Clear
1:00 PM 71.6 °F - 50.0 °F 46% 29.89 in 6.2 mi SE 6.9 mph - N/A   Unknown
1:30 PM 73.4 °F - 48.2 °F 41% 29.89 in 6.2 mi SE 5.8 mph - N/A   Unknown
2:00 PM 75 °F - 49 °F 29% 29.89 in 12 mi SE 6.9 mph - -   Clear
2:00 PM 75.2 °F - 48.2 °F 38% 29.89 in 6.2 mi SE 6.9 mph - N/A   Unknown
2:30 PM 77.0 °F - 51.8 °F 41% 29.86 in 6.2 mi SE 6.9 mph - N/A   Unknown
3:00 PM 78 °F - 46 °F 22% 29.89 in 12 mi South 5.8 mph - -   Clear
3:00 PM 78.8 °F - 46.4 °F 32% 29.89 in 6.2 mi South 5.8 mph - N/A   Unknown
3:30 PM 78.8 °F - 48.2 °F 34% 29.86 in 6.2 mi Variable 3.5 mph - N/A   Unknown
4:00 PM 81 °F - 49 °F 22% 29.86 in 8 mi South 4.6 mph - -   Clear
4:00 PM 80.6 °F - 48.2 °F 32% 29.86 in 6.2 mi South 4.6 mph - N/A   Unknown
4:30 PM 78.8 °F - 50.0 °F 36% 29.86 in 6.2 mi WSW 4.6 mph - N/A   Unknown
5:00 PM 81 °F - 49 °F 23% 29.85 in 37 mi SW 6.9 mph - -   Clear
5:00 PM 80.6 °F - 50.0 °F 34% 29.86 in 6.2 mi SW 6.9 mph - N/A   Unknown
5:30 PM 80.6 °F - 51.8 °F 37% 29.83 in 6.2 mi South 5.8 mph - N/A   Unknown
6:00 PM 80 °F - 51 °F 26% 29.85 in 37 mi South 6.9 mph - -   Clear
6:00 PM 80.6 °F - 51.8 °F 37% 29.83 in 6.2 mi South 6.9 mph - N/A   Unknown
6:30 PM 80.6 °F - 51.8 °F 37% 29.83 in 6.2 mi SSE 5.8 mph - N/A   Unknown
7:00 PM 80 °F - 52 °F 27% 29.84 in 11 mi SSE 4.6 mph - -   Clear
7:00 PM 78.8 °F - 51.8 °F 39% 29.83 in 6.2 mi SSE 4.6 mph - N/A   Unknown
7:30 PM 78.8 °F - 50.0 °F 36% 29.83 in 6.2 mi South 4.6 mph - N/A   Unknown
8:00 PM 78 °F - 52 °F 30% 29.85 in 7 mi SSE 4.6 mph - -   Clear
8:00 PM 77.0 °F - 51.8 °F 41% 29.83 in 6.2 mi SSE 4.6 mph - N/A   Unknown
8:30 PM 77.0 °F - 51.8 °F 41% 29.83 in 6.2 mi Variable 2.3 mph - N/A   Unknown
9:00 PM 74 °F - 51 °F 34% 29.86 in 9 mi South 2.3 mph - -   Clear
9:00 PM 73.4 °F - 51.8 °F 47% 29.86 in 6.2 mi South 2.3 mph - N/A   Unknown
9:30 PM 69.8 °F - 51.8 °F 53% 29.86 in 6.2 mi NNW 3.5 mph - N/A   Unknown
10:00 PM 66 °F - 49 °F 44% 29.88 in 37 mi NNW 5.8 mph - -   Clear
10:00 PM 66.2 °F - 50.0 °F 56% 29.86 in 6.2 mi NNW 5.8 mph - N/A   Unknown
10:30 PM 64.4 °F - 50.0 °F 59% 29.89 in 6.2 mi NNW 3.5 mph - N/A   Unknown
11:00 PM 62 °F - 52 °F 61% 29.90 in 37 mi SSE 1.2 mph - -   Clear
11:00 PM 62.6 °F - 51.8 °F 68% 29.89 in 6.2 mi Variable 1.2 mph - N/A   Unknown
11:30 PM 59.0 °F - 50.0 °F 72% 29.89 in 6.2 mi West 9.2 mph - N/A   Unknown